Find Starlink 11519

NORAD ID: 62560 Int'l Des: 2025-006 Owner: SPXS Country: US Constellation: starlink operational
LEOCIRCULAR

リアルタイム位置

3D地球を読み込み中...

Starlink 11519について

説明を読み込み中...

次回通過

Passes for default location (London). Set your location on the main map for personalized predictions.

高度履歴

Loading altitude history...

軌道要素

1 62560U 25006G 26124.10688113 .00184030 00000-0 13992-2 0 9997
2 62560 42.9984 166.2543 0000705 238.6937 121.3861 15.70957478 75315
Epoch: May 4, 2026 • Age: 13 hours

現在のステータス

高度 359.4 km
速度 7.69 km/s
衛星直下点 -19.15°S, 92.65°W
打ち上げ日 Jan 10, 2025
運用期間 1.3 years
タイプ internet

技術仕様

分類 Payload
質量 960.00 kg
乾燥質量 910.00 kg
総質量 960.00 kg
長さ 0.30 m
直径 4.10 m
スパン 29.00 m
形状 Box + pan
製造者 SPXS
バスタイプ Starlink V2MD
フェーズステータス In Orbit
所有者/国 SPXS/US

Most Searched